Date String (YYYY-MM-DD hh:mm:ss) UTC,Instrument flags,absolute air pressure of the measurement (hPa),sample flow rate (lpm),inlet stack bypass flow (lpm),air temperature of the measurement (°C),ambient temperature measured by the external sensor (°C),aerosol sample conditioner tube jacket temperature (°C),OPC LED temperature (°C),internal box temperature (°C),relative humidity of the measurement (%),span deviation,mass concentration of particles derived from Lorenz-Mie calculation of OPC scattering (μg/m³),mass concentration of particles derived from Lorenz-Mie calculation of OPC scattering (μg/m³),mass concentration of particles derived from Lorenz-Mie calculation of OPC scattering (μg/m³)
DateTimeUTC,F1_M11,P_M11,Q1_M11,Q2_M11,T1_M11,T2_M11,T3_M11,T4_M11,T5_M11,U1_M11,ZSPAN_M11,X0_M11,X2_M11,X1_M11
2023-10-16 01:00:00,SystemResetWarning,0839.5,5.00,000.00,028.5,027.2,000.0,036.9,030.2,13.8,0000.0,0006.59,0003.24,0002.82
2023-10-16 01:01:00,SystemResetWarning,0839.5,5.01,000.00,028.5,027.2,000.0,036.9,030.2,13.8,0000.0,0006.45,0003.22,0002.83
2023-10-16 01:02:00,SystemResetWarning,0839.5,5.00,000.00,028.5,027.3,000.0,036.9,030.3,13.7,0000.0,0007.05,0003.25,0002.84
2023-10-16 01:03:00,SystemResetWarning,0839.5,5.00,000.00,028.6,027.4,000.0,036.9,030.3,13.7,0000.0,0007.51,0003.27,0002.86
2023-10-16 01:04:00,SystemResetWarning,0839.5,5.01,000.00,028.6,027.4,000.0,036.9,030.3,13.7,0000.0,0007.61,0003.29,0002.89
2023-10-16 01:05:00,SystemResetWarning,0839.5,4.99,000.00,028.6,027.5,000.0,036.9,030.4,13.7,0000.0,0007.57,0003.29,0002.90
2023-10-16 01:06:00,SystemResetWarning,0839.6,4.99,000.00,028.6,027.5,000.0,036.9,030.4,13.7,0000.0,0008.80,0003.32,0002.88
2023-10-16 01:07:00,SystemResetWarning,0839.5,4.99,000.00,028.7,027.5,000.0,037.0,030.4,13.7,0000.0,0009.18,0003.35,0002.87
2023-10-16 01:08:00,SystemResetWarning,0839.6,5.00,000.00,028.7,027.6,000.0,037.0,030.4,13.7,0000.0,0009.45,0003.36,0002.86
2023-10-16 01:09:00,SystemResetWarning,0839.6,5.01,000.00,028.7,027.6,000.0,037.0,030.4,13.7,0000.0,0010.06,0003.37,0002.88
2023-10-16 01:10:00,SystemResetWarning,0839.6,4.99,000.00,028.7,027.6,000.0,037.0,030.5,13.7,0000.0,0010.95,0003.38,0002.87
2023-10-16 01:11:00,SystemResetWarning,0839.6,4.99,000.00,028.8,027.6,000.0,037.0,030.5,13.6,0000.0,0011.34,0003.41,0002.87
2023-10-16 01:12:00,SystemResetWarning,0839.6,5.02,000.00,028.8,027.7,000.0,037.1,030.5,13.6,0000.0,0011.53,0003.43,0002.87
2023-10-16 01:13:00,SystemResetWarning,0839.6,5.00,000.00,028.8,027.7,000.0,037.1,030.5,13.6,0000.0,0010.99,0003.44,0002.88
2023-10-16 01:14:00,SystemResetWarning,0839.6,4.98,000.00,028.8,027.0,000.0,037.1,030.5,13.6,0000.0,0010.37,0003.39,0002.87
2023-10-16 01:15:00,SystemResetWarning,0839.5,5.01,000.00,028.7,024.9,000.0,037.0,030.3,13.7,0000.0,0010.27,0003.40,0002.86
2023-10-16 01:16:00,SystemResetWarning,0839.5,5.00,000.00,028.6,024.2,000.0,037.0,030.1,13.7,0000.0,0010.25,0003.40,0002.87
2023-10-16 01:17:00,SystemResetWarning,0839.5,5.01,000.00,028.5,024.3,000.0,036.9,029.9,13.8,0000.0,0009.13,0003.37,0002.90
2023-10-16 01:18:00,SystemResetWarning,0839.5,5.00,000.00,028.4,024.7,000.0,036.9,029.8,13.9,0000.0,0009.34,0003.35,0002.90
2023-10-16 01:19:00,SystemResetWarning,0839.5,4.99,000.00,028.3,025.1,000.0,036.9,029.8,14.0,0000.0,0009.35,0003.37,0002.91
2023-10-16 01:20:00,SystemResetWarning,0839.6,5.00,000.00,028.3,025.5,000.0,036.9,029.9,14.0,0000.0,0008.90,0003.38,0002.91
2023-10-16 01:21:00,SystemResetWarning,0839.6,5.00,000.00,028.3,025.8,000.0,036.9,029.9,14.0,0000.0,0008.15,0003.38,0002.91
2023-10-16 01:22:00,SystemResetWarning,0839.6,5.01,000.00,028.3,026.1,000.0,036.9,029.9,14.0,0000.0,0008.15,0003.41,0002.92
2023-10-16 01:23:00,SystemResetWarning,0839.6,5.00,000.00,028.3,026.3,000.0,036.9,030.0,14.0,0000.0,0008.49,0003.42,0002.93
2023-10-16 01:24:00,SystemResetWarning,0839.6,4.99,000.00,028.3,026.5,000.0,036.9,030.0,14.0,0000.0,0008.74,0003.43,0002.93
2023-10-16 01:25:00,SystemResetWarning,0839.6,5.00,000.00,028.3,026.6,000.0,036.9,030.0,14.0,0000.0,0008.91,0003.45,0002.93
2023-10-16 01:26:00,SystemResetWarning,0839.6,5.00,000.00,028.4,026.8,000.0,036.9,030.1,14.0,0000.0,0009.59,0003.47,0002.94
2023-10-16 01:27:00,SystemResetWarning,0839.7,5.00,000.00,028.4,026.9,000.0,036.9,030.1,14.0,0000.0,0009.62,0003.44,0002.92
2023-10-16 01:28:00,SystemResetWarning,0839.6,5.00,000.00,028.4,027.0,000.0,036.9,030.1,14.0,0000.0,0009.54,0003.43,0002.90
2023-10-16 01:29:00,SystemResetWarning,0839.6,5.00,000.00,028.4,027.0,000.0,036.9,030.2,13.9,0000.0,0009.44,0003.43,0002.90
2023-10-16 01:30:00,SystemResetWarning,0839.6,5.01,000.00,028.4,027.1,000.0,036.9,030.2,13.9,0000.0,0009.51,0003.44,0002.91
2023-10-16 01:31:00,SystemResetWarning,0839.7,5.00,000.00,028.5,027.2,000.0,036.9,030.2,13.9,0000.0,0009.75,0003.48,0002.93
2023-10-16 01:32:00,SystemResetWarning,0839.7,4.98,000.00,028.5,027.2,000.0,036.9,030.2,13.9,0000.0,0010.70,0003.57,0002.94
2023-10-16 01:33:00,SystemResetWarning,0839.7,5.00,000.00,028.5,027.3,000.0,036.9,030.2,13.9,0000.0,0011.78,0003.58,0002.95
2023-10-16 01:34:00,SystemResetWarning,0839.7,5.01,000.00,028.5,027.3,000.0,036.9,030.3,13.8,0000.0,0011.49,0003.61,0002.96
2023-10-16 01:35:00,SystemResetWarning,0839.6,4.99,000.00,028.6,027.4,000.0,036.9,030.3,13.8,0000.0,0010.87,0003.64,0002.95
2023-10-16 01:36:00,SystemResetWarning,0839.6,4.99,000.00,028.6,027.4,000.0,036.9,030.3,13.8,0000.0,0010.88,0003.62,0002.96
2023-10-16 01:37:00,SystemResetWarning,0839.6,5.01,000.00,028.6,027.4,000.0,036.9,030.3,13.8,0000.0,0010.17,0003.61,0002.98
2023-10-16 01:38:00,SystemResetWarning,0839.6,5.01,000.00,028.6,027.4,000.0,037.0,030.3,13.8,0000.0,0010.06,0003.62,0003.00
2023-10-16 01:39:00,SystemResetWarning,0839.6,4.99,000.00,028.6,027.5,000.0,036.9,030.4,13.7,0000.0,0010.13,0003.65,0003.03
2023-10-16 01:40:00,SystemResetWarning,0839.6,4.99,000.00,028.7,027.5,000.0,037.0,030.4,13.7,0000.0,0010.08,0003.67,0003.05
2023-10-16 01:41:00,SystemResetWarning,0839.6,5.01,000.00,028.7,027.5,000.0,037.0,030.4,13.7,0000.0,0009.42,0003.66,0003.08
2023-10-16 01:42:00,SystemResetWarning,0839.7,5.01,000.00,028.7,027.5,000.0,037.0,030.4,13.7,0000.0,0009.35,0003.62,0003.08
2023-10-16 01:43:00,SystemResetWarning,0839.6,4.98,000.00,028.7,027.5,000.0,037.0,030.4,13.7,0000.0,0008.97,0003.58,0003.10
2023-10-16 01:44:00,SystemResetWarning,0839.6,5.00,000.00,028.7,027.5,000.0,037.1,030.4,13.7,0000.0,0007.68,0003.56,0003.11
2023-10-16 01:45:00,SystemResetWarning,0839.7,5.01,000.00,028.8,027.6,000.0,037.1,030.5,13.7,0000.0,0007.04,0003.51,0003.10
2023-10-16 01:46:00,SystemResetWarning,0839.7,5.01,000.00,028.8,027.6,000.0,037.1,030.5,13.6,0000.0,0006.73,0003.46,0003.10
2023-10-16 01:47:00,SystemResetWarning,0839.7,4.99,000.00,028.8,027.6,000.0,037.1,030.5,13.6,0000.0,0006.67,0003.47,0003.10
2023-10-16 01:48:00,SystemResetWarning,0839.7,4.99,000.00,028.8,027.6,000.0,037.1,030.5,13.6,0000.0,0006.63,0003.48,0003.09
2023-10-16 01:49:00,SystemResetWarning,0839.7,5.00,000.00,028.8,027.6,000.0,037.1,030.5,13.6,0000.0,0006.80,0003.50,0003.08
2023-10-16 01:50:00,SystemResetWarning,0839.7,5.00,000.00,028.8,027.6,000.0,037.1,030.5,13.6,0000.0,0006.96,0003.50,0003.08
2023-10-16 01:51:00,SystemResetWarning,0839.7,5.00,000.00,028.8,027.6,000.0,037.1,030.5,13.6,0000.0,0007.05,0003.50,0003.09
2023-10-16 01:52:00,SystemResetWarning,0839.7,5.01,000.00,028.9,027.6,000.0,037.2,030.5,13.6,0000.0,0007.35,0003.50,0003.08
2023-10-16 01:53:00,SystemResetWarning,0839.7,5.01,000.00,028.9,027.6,000.0,037.2,030.6,13.5,0000.0,0007.25,0003.52,0003.09
2023-10-16 01:54:00,SystemResetWarning,0839.7,4.99,000.00,028.9,027.6,000.0,037.2,030.5,13.5,0000.0,0007.45,0003.51,0003.09
2023-10-16 01:55:00,SystemResetWarning,0839.7,4.99,000.00,028.9,027.6,000.0,037.2,030.6,13.5,0000.0,0007.29,0003.49,0003.10
2023-10-16 01:56:00,SystemResetWarning,0839.7,5.01,000.00,028.9,027.7,000.0,037.2,030.6,13.5,0000.0,0007.80,0003.52,0003.13
2023-10-16 01:57:00,SystemResetWarning,0839.7,5.01,000.00,028.9,027.7,000.0,037.3,030.6,13.5,0000.0,0008.26,0003.54,0003.14
2023-10-16 01:58:00,SystemResetWarning,0839.7,5.00,000.00,028.9,027.7,000.0,037.3,030.6,13.5,0000.0,0008.66,0003.56,0003.15
2023-10-16 01:59:00,SystemResetWarning,0839.7,4.99,000.00,028.9,027.7,000.0,037.3,030.6,13.5,0000.0,0008.89,0003.56,0003.16
